Regional Weather Roundup
Issued by NWS

Home | Current Version | Previous Version | Text Only | Print | Product List | Glossary Off
Versions: 1 2 3 4 5 6 7 8 9 10 11 12 13 14 15 16 17 18 19 20 21 22 23 24 25 26 27 28 29 30 31 32 33 34 35 36 37 38 39 40 41 42 43 44 45 46 47 48 49 50

000
ASUS45 KBOU 212307
RWRCO

WEATHER ROUNDUP FOR COLORADO
NATIONAL WEATHER SERVICE DENVER/BOULDER CO
400 PM MST SUN DEC 21 2014

NOTE: "FAIR" INDICATES FEW OR NO CLOUDS BELOW 12000 FEET WITH NO
SIGNIFICANT WEATHER AND/OR OBSTRUCTIONS TO VISIBILITY.

COZ001>005-013-030-031-220000-
...NORTHWEST COLORADO...

CITY           SKY/WX    TMP DP  RH WIND       PRES   REMARKS
CRAIG          CLOUDY    38  31  76 SW25G35   29.73S
HAYDEN         CLOUDY    36  28  75 W21G26    29.70F
MEEKER         LGT SNOW  34  31  88 NE7       29.79F FOG     WCI  28
MOUNT WERNER   NOT AVBL
STEAMBOAT SPGS CLOUDY    34  31  88 W14G20    29.72S WCI  24
WALDEN         CLOUDY    32  28  86 SW12      29.64F WCI  23
$$

COZ006>008-011-220000-
...WEST CENTRAL VALLEYS...

CITY           SKY/WX    TMP DP  RH WIND       PRES   REMARKS
GRAND JUNCTION CLOUDY    33  31  92 CALM      29.93S
MONTROSE       CLOUDY    34  31  88 CALM      29.92F
EAGLE          LGT SNOW  36  28  75 W6G20     29.83S FOG
RIFLE          CLOUDY    35  29  78 W14       29.86F WCI  26
DELTA          CLOUDY    38  33  80 SW3       29.93S
NUCLA          CLOUDY    41  32  70 NE3       29.98F
$$

COZ017>023-064>068-220000-
...SOUTHWEST COLORADO...

CITY           SKY/WX    TMP DP  RH WIND       PRES   REMARKS
DURANGO        CLOUDY    37  29  72 E8        29.93F
CORTEZ         CLEAR     41  29  62 NW10      29.98S
PAGOSA SPRINGS CLOUDY    32  25  76 CALM      29.95S
TELLURIDE      CLOUDY    32  31  96 W8        29.99S FOG     WCI  25
WOLF CREEK PAS SNOW      18  18 100 MISG      29.92F VSB 1/4
$$

COZ009-010-012-014-032>034-037-058>063-220000-
...CENTRAL COLORADO...

CITY           SKY/WX    TMP DP  RH WIND       PRES   REMARKS
ASPEN          SNOW      27  25  92 NW3       29.82F VSB 1/2
BUENA VISTA    LGT SNOW  33  26  72 W9G22     29.74S WCI  26
COPPER MTN     CLOUDY    25  19  80 W30G49    29.74R WCI   8
BERTHOUD PASS  TSTM      18  12  79 MISG      29.58F VSB<1/4
COTTONWOOD PAS LGT SNOW  32  27  80 NW16G29   29.74S VSB 3/4 WCI  21
GUNNISON       CLOUDY    28  25  86 N6        29.86S WCI  22
KREMMLING      LGT SNOW  32  28  86 SW24G31   29.70F WCI  19
LEADVILLE      SNOW      24  21  88 NW18G26   29.73F VSB 1/2 WCI  10
MONARCH PASS   CLOUDY    19  18  93 MISG      29.89F
SALIDA         CLOUDY    41  23  48 W17G24    29.82S
SUNLIGHT       SNOW     N/A N/A N/A CALM      29.84R VSB 1/4
WILKERSON PASS SNOW      23  21  93 W9G18     29.75S VSB 1/4 WCI  13
$$

COZ069>075-220000-
...SAN LUIS VALLEY/SANGRE DE CRISTO MOUNTAINS...

CITY           SKY/WX    TMP DP  RH WIND       PRES   REMARKS
ALAMOSA        CLOUDY    38  22  52 E7        29.81F
LA VETA PASS   CLOUDY    30  19  64 S13G30    29.75S WCI  20
SAGUACHE       LGT SNOW  32  27  80 SE10      29.83S WCI  24
$$

COZ035-036-038>040-220000-
...NORTHERN COLORADO FRONT RANGE...

CITY           SKY/WX    TMP DP  RH WIND       PRES   REMARKS
DENVER INTL AP CLOUDY    49  24  37 W13       29.54S
DMNS CITY PARK   N/A     50  24  36 NW12G20   29.55S
AURORA         MOCLDY    46  24  42 NW14      29.57R
FRONT RANGE AP CLOUDY    48  28  46 W13       29.56R
ERIE MUNI ARPT NOT AVBL
BOULDER MUN AP CLOUDY    46  27  46 NW7       29.53S
CENTENNIAL     CLOUDY    44  26  49 CALM      29.57R
BROOMFIELD     MOCLDY    48  25  40 W12       29.56R
FORT COLLINS   MOCLDY    52  27  37 NW17G26   29.54R
LONGMONT       MOCLDY    52  28  39 W10G17    29.55R
$$

COZ041-046-047-076>085-087-088-220000-
...PIKES PEAK/PALMER DIVIDE AND SOUTHERN FOOTHILLS...

CITY           SKY/WX    TMP DP  RH WIND       PRES   REMARKS
COLO. SPRINGS  CLOUDY    48  23  37 NW17G31   29.60R
A. F. ACADEMY  CLOUDY    45  22  39 NW10      29.60S
ELLICOTT       NOT AVBL
FALCON         CLOUDY    44  22  42 W17       29.61S
FORT CARSON    CLOUDY    49  22  34 NW2       29.58R
LIMON          CLOUDY    45  26  47 NW8       29.56R
MONUMENT HILL  CLOUDY    39  23  52 W10       29.60R
TRINIDAD       CLOUDY    53  22  29 NW22G28   29.61F
$$

COZ042>045-048>051-090-091-220000-
...NORTHEAST COLORADO...

CITY           SKY/WX    TMP DP  RH WIND       PRES   REMARKS
GREELEY ARPT   CLOUDY    50  27  40 NW17      29.51R
AKRON          CLOUDY    43  32  65 CALM      29.53S
BURLINGTON     CLOUDY    43  33  68 S5        29.53F
WRAY           CLOUDY    43  32  65 W10       29.52S
STERLING       CLOUDY    36  34  93 SW7       29.51S
HOLYOKE        CLOUDY    37  32  81 W7        29.51S
FORT MORGAN    CLOUDY    35  29  81 W5        29.53R WCI  31
$$

COZ086-089-092>099-220000-
...SOUTHEAST COLORADO...

CITY           SKY/WX    TMP DP  RH WIND       PRES   REMARKS
PUEBLO         CLOUDY    54  22  28 W18       29.57R
LA JUNTA       MOCLDY    41  31  67 SW5       29.55F
LAMAR          MOCLDY    52  28  39 SW9       29.52F
SPRINGFIELD      N/A     50  22  33 SW7       29.56F
$$


USA.gov is the U.S. government's official web portal to all federal, state and local government web resources and services.